Weather in Staromikhaylovskoye

Russia / Kaluga Oblast     55°12′46″N   36°41′48″E
temp.,
°C
wind,
m/s
gust,
m/s
humid.,
%
clouds,
%
prec.,
mm/h
press.,
hPa
HPBL,
m
17 may, mon
mon1700:00+13e119099 0.0 101310
03:00+12e22915 0.0 101437
06:00+13e278989 0.0 1014148
09:00+20e496465 0.0 1013510
12:00+24ese675914 0.0 10121034
15:00+26ese69555 0.0 10101460
18:00+23se5107240 0.6 1009642
21:00+18ese4138499 0.6 1009437
18 may, tue
tue1800:00+17ese413862 0.0 1009354
03:00+15ese411865 0.0 1009279
06:00+15se4118377 0.0 1009319
09:00+20se5862100 0.0 1008492
12:00+24se6114856 0.0 10081017
15:00+26se5124890 0.0 10071701
18:00+23se51163100 0.0 1007881
21:00+20se51568100 0.0 1007770
19 may, wed
wed1900:00+17se41285100 0.0 1007356
03:00+15ese3896100 0.0 1007183
06:00+16se3109069 0.0 1007322
09:00+21sse596184 0.0 1008754
12:00+22se4557100 0.0 10081325
15:00+22s4861100 0.1 10081359
18:00+19s3785100 2.4 1008441
21:00+16nne239698 5.3 100763
20 may, thu
thu2000:00+14ne2397100 0.8 100853
03:00+15ne239697 1.2 100669
06:00+15e411946 1.0 1005393
09:00+17sse4689100 1.1 1005606
12:00+17s368092 0.7 1005834
15:00+13wsw6129592 5.4 1007681
18:00+15sse41090100 0.5 1008672
21:00+13sse4119643 1.7 1009431
21 may, fri
fri2100:00+12ssw4119781 0.0 1010477
03:00+10sw41195100 0.0 1012631
06:00+10sw41094100 0.0 1014551
09:00+12sw478059 0.0 1016601
12:00+14sw4671100 0.0 1017634
15:00+17sw4559100 0.0 1018873
18:00+13wsw2691100 0.5 1018256
21:00+12s2798100 1.4 1018276